This is the latest recevied weather packets stored in our database for station/object W1ERB-13. If no packets are shown the sender has not sent any weather packets the latest 1 day(s).
| Time | Temp. | Humidity | Pressure | Rain* | Wind** | Luminosity | Snow |
|---|---|---|---|---|---|---|---|
| 1777999857 | 23.89° C | 51% | 1008.9 hPa | 0 mm | 1.79 m/s, 126° | 720 W/m² | - |
| 1777999553 | 24.44° C | 51% | 1009 hPa | 0 mm | 4.47 m/s, 141° | 716 W/m² | - |
| 1777999251 | 23.89° C | 50% | 1009.1 hPa | 0 mm | 3.13 m/s, 163° | 717 W/m² | - |
| 1777998949 | 23.89° C | 51% | 1009.2 hPa | 0 mm | 1.79 m/s, 177° | 714 W/m² | - |
| 1777998645 | 23.33° C | 54% | 1009.5 hPa | 0 mm | 2.68 m/s, 226° | 714 W/m² | - |
| 1777998338 | 23.89° C | 54% | 1009.2 hPa | 0 mm | 1.34 m/s, 176° | 718 W/m² | - |
| 1777998036 | 24.44° C | 53% | 1009.2 hPa | 0 mm | 2.24 m/s, 206° | 717 W/m² | - |
| 1777997732 | 23.89° C | 54% | 1009.7 hPa | 0 mm | 1.34 m/s, 229° | 723 W/m² | - |
| 1777997429 | 23.33° C | 53% | 1009.2 hPa | 0 mm | 1.34 m/s, 217° | 722 W/m² | - |
| 1777997127 | 23.33° C | 56% | 1009.6 hPa | 0 mm | 0.45 m/s, 214° | 702 W/m² | - |
| 1777996824 | 22.78° C | 54% | 1009.5 hPa | 0 mm | 1.34 m/s, 76° | 638 W/m² | - |
| 1777996520 | 22.78° C | 55% | 1009.6 hPa | 0 mm | 1.34 m/s, 206° | 639 W/m² | - |
| 1777996217 | 22.78° C | 55% | 1009.6 hPa | 0 mm | 0.89 m/s, 240° | 691 W/m² | - |
| 1777995913 | 22.22° C | 55% | 1009.8 hPa | 0 mm | 0.89 m/s, 260° | 704 W/m² | - |
| 1777995609 | 22.22° C | 57% | 1009.9 hPa | 0 mm | 1.34 m/s, 210° | 733 W/m² | - |
| 1777995307 | 22.78° C | 55% | 1010.2 hPa | 0 mm | 1.34 m/s, 306° | 734 W/m² | - |
| 1777995004 | 22.22° C | 57% | 1010.1 hPa | 0 mm | 1.34 m/s, 280° | 725 W/m² | - |
| 1777994701 | 21.67° C | 57% | 1010.2 hPa | 0 mm | 0.45 m/s, 226° | 729 W/m² | - |
| 1777994395 | 22.22° C | 56% | 1010.1 hPa | 0 mm | 1.34 m/s, 204° | 729 W/m² | - |
| 1777994092 | 21.67° C | 58% | 1010.3 hPa | 0 mm | 1.79 m/s, 220° | 735 W/m² | - |
| 1777993789 | 21.11° C | 58% | 1010.4 hPa | 0 mm | 0.89 m/s, 222° | 744 W/m² | - |
| 1777993486 | 20.56° C | 58% | 1010.5 hPa | 0 mm | 1.34 m/s, 223° | 761 W/m² | - |
| 1777993185 | 20.56° C | 60% | 1010.7 hPa | 0 mm | 1.34 m/s, 211° | 748 W/m² | - |
| 1777992883 | 20° C | 60% | 1010.6 hPa | 0 mm | 2.68 m/s, 279° | 706 W/m² | - |
| 1777992582 | 20.56° C | 59% | 1010.5 hPa | 0 mm | 2.68 m/s, 265° | 679 W/m² | - |
* Rain latest hour (hover to see other rain measurements)
** Current wind speed in m/s (hover to see current wind gust speed)